N1ACB Weather Reports


time (UTC)temp
C
wind
direction
speed
KPH
gust
KPH
rain 1hr
cm
rain 24hr
cm
rain mn
cm
humidity
%
barometer
mb
20260509011503 16 17 0.0 0.0 0.00 0.00 0.00 77 1011.8
20260509011003 16 19 0.0 0.0 0.00 0.00 0.00 77 1011.9
20260509010503 16 19 0.0 0.0 0.00 0.00 0.00 76 1011.8
20260509010004 16 19 0.0 0.0 0.00 0.00 0.00 76 1011.9
20260509005503 16 31 0.0 0.0 0.00 0.00 0.00 77 1011.8
20260509005004 16 32 0.0 0.0 0.00 0.00 0.00 76 1011.8
20260509004004 16 34 0.0 0.0 0.00 0.00 0.00 76 1011.8
20260509003503 16 34 0.0 0.0 0.00 0.00 0.00 76 1011.8
20260509003004 16 34 0.0 0.0 0.00 0.00 0.00 74 1011.9
20260509002504 16 30 0.0 0.0 0.00 0.00 0.00 74 1011.9
20260509002004 17 29 0.0 0.0 0.00 0.00 0.00 73 1011.9
20260509000504 17 30 0.0 0.0 0.00 0.00 0.00 72 1011.8
20260508235504 17 30 0.0 0.0 0.00 0.00 0.00 68 1011.9
20260508234503 17 30 0.0 0.0 0.00 0.00 0.00 67 1011.8
20260508234004 18 30 0.0 0.0 0.00 0.00 0.00 67 1011.7
20260508233504 18 30 0.0 0.0 0.00 0.00 0.00 67 1011.8
20260508233004 18 31 0.0 0.0 0.00 0.00 0.00 65 1011.8
20260508232504 18 34 0.0 0.0 0.00 0.00 0.00 63 1011.9
20260508232004 18 35 0.0 0.0 0.00 0.00 0.00 64 1011.9
20260508231004 18 34 0.0 0.0 0.00 0.00 0.00 61 1011.8
20260508230004 18 36 0.0 1.6 0.00 0.00 0.00 62 1011.9
20260508225503 19 27 0.0 0.0 0.00 0.00 0.00 61 1011.8
20260508225003 19 342 0.0 1.6 0.00 0.00 0.00 62 1011.9
20260508224004 19 353 0.0 0.0 0.00 0.00 0.00 61 1011.8
20260508223504 19 354 0.0 0.0 0.00 0.00 0.00 60 1011.9
20260508223004 20 354 0.0 0.0 0.00 0.00 0.00 60 1011.9
20260508222503 20 349 0.0 0.0 0.00 0.00 0.00 62 1011.8
20260508222004 20 45 0.0 0.0 0.00 0.00 0.00 60 1011.7
20260508221503 20 317 0.0 0.0 0.00 0.00 0.00 60 1011.9
20260508221004 20 317 0.0 0.0 0.00 0.00 0.00 60 1011.8
20260508220504 20 323 0.0 0.0 0.00 0.00 0.00 59 1011.7
20260508220004 20 6 0.0 0.0 0.00 0.00 0.00 61 1011.6
20260508215504 20 6 0.0 0.0 0.00 0.00 0.00 59 1011.7
20260508215003 20 6 0.0 0.0 0.00 0.00 0.00 59 1011.9
20260508214504 20 6 0.0 0.0 0.00 0.00 0.00 59 1011.7
20260508214004 20 6 0.0 0.0 0.00 0.00 0.00 60 1011.6
20260508213504 20 6 0.0 0.0 0.00 0.00 0.00 59 1011.5
20260508213003 20 6 0.0 0.0 0.00 0.00 0.00 59 1011.5
20260508212503 20 6 0.0 0.0 0.00 0.00 0.00 57 1011.7
20260508211004 21 113 0.0 0.0 0.00 0.00 0.00 52 1011.9
20260508210503 21 109 0.0 0.0 0.00 0.00 0.00 51 1011.9
20260508210003 21 206 0.0 0.0 0.00 0.00 0.00 53 1011.7
20260508205503 21 205 0.0 0.0 0.00 0.00 0.00 52 1011.7
20260508205004 21 189 0.0 4.8 0.00 0.00 0.00 53 1011.8
20260508204503 21 184 1.6 4.8 0.00 0.00 0.00 50 1011.7
20260508204004 21 169 0.0 0.0 0.00 0.00 0.00 55 1011.8
20260508203503 21 201 1.6 3.2 0.00 0.00 0.00 50 1011.8
20260508203004 21 188 0.0 3.2 0.00 0.00 0.00 54 1011.8
20260508202503 21 185 0.0 0.0 0.00 0.00 0.00 55 1011.9
20260508202004 21 188 0.0 0.0 0.00 0.00 0.00 53 1012.0
20260508201503 21 188 0.0 0.0 0.00 0.00 0.00 48 1012.0
20260508201004 21 188 0.0 0.0 0.00 0.00 0.00 51 1012.0
20260508200004 21 168 0.0 3.2 0.00 0.00 0.00 49 1012.1
20260508195504 21 344 1.6 4.8 0.00 0.00 0.00 50 1012.2
20260508195003 21 0 0.0 0.0 0.00 0.00 0.00 50 1012.3
20260508194504 21 356 0.0 0.0 0.00 0.00 0.00 50 1012.4
20260508194003 21 291 0.0 1.6 0.00 0.00 0.00 52 1012.5
20260508193504 21 291 0.0 1.6 0.00 0.00 0.00 49 1012.6
20260508193004 21 8 0.0 0.0 0.00 0.00 0.00 48 1012.7
20260508192503 21 0 0.0 1.6 0.00 0.00 0.00 51 1012.7
20260508192004 21 335 0.0 0.0 0.00 0.00 0.00 49 1012.6
20260508191503 21 335 0.0 0.0 0.00 0.00 0.00 45 1012.8
20260508191004 21 65 0.0 0.0 0.00 0.00 0.00 49 1012.9
20260508190503 21 19 0.0 0.0 0.00 0.00 0.00 51 1012.8
20260508185503 21 342 0.0 0.0 0.00 0.00 0.00 52 1012.9
20260508185004 22 258 0.0 1.6 0.00 0.00 0.00 46 1012.8
20260508184004 22 337 0.0 3.2 0.00 0.00 0.00 50 1013.1
20260508183503 21 295 0.0 0.0 0.00 0.00 0.00 46 1013.3
20260508183004 21 187 0.0 3.2 0.00 0.00 0.00 46 1013.4
20260508182503 21 174 0.0 0.0 0.00 0.00 0.00 50 1013.4
20260508182004 21 184 0.0 0.0 0.00 0.00 0.00 51 1013.5
20260508181504 21 337 0.0 0.0 0.00 0.00 0.00 50 1013.5
20260508181004 20 349 0.0 0.0 0.00 0.00 0.00 50 1013.6
20260508180004 20 306 0.0 3.2 0.00 0.00 0.00 54 1013.6
20260508175504 20 13 0.0 0.0 0.00 0.00 0.00 55 1013.7
20260508175004 20 356 0.0 0.0 0.00 0.00 0.00 53 1013.9
20260508174504 20 21 0.0 0.0 0.00 0.00 0.00 55 1013.9
20260508173504 20 2 0.0 1.6 0.00 0.00 0.00 53 1014.1
20260508173004 20 296 0.0 1.6 0.00 0.00 0.00 57 1014.1
20260508172504 19 294 0.0 0.0 0.00 0.00 0.00 56 1014.2
20260508172004 20 236 0.0 0.0 0.00 0.00 0.00 54 1014.3
20260508171504 20 236 0.0 0.0 0.00 0.00 0.00 51 1014.2
20260508171004 20 188 0.0 0.0 0.00 0.00 0.00 54 1014.4
20260508170503 20 176 0.0 1.6 0.00 0.00 0.00 53 1014.4
20260508170003 20 9 0.0 0.0 0.00 0.00 0.00 60 1014.5
20260508165504 19 287 0.0 0.0 0.00 0.00 0.00 57 1014.7
20260508165004 19 189 0.0 4.8 0.00 0.00 0.00 58 1014.8
20260508164504 18 190 1.6 8.0 0.00 0.00 0.00 52 1014.9
20260508164003 18 220 0.0 0.0 0.00 0.00 0.00 56 1015.0
20260508163504 18 81 0.0 0.0 0.00 0.00 0.00 57 1015.0
20260508162003 18 341 1.6 4.8 0.00 0.00 0.00 58 1015.4
20260508161004 18 277 0.0 0.0 0.00 0.00 0.00 60 1015.3
20260508160003 18 329 0.0 0.0 0.00 0.00 0.00 55 1015.3
20260508155504 19 353 0.0 0.0 0.00 0.00 0.00 58 1015.3
20260508155003 18 356 0.0 0.0 0.00 0.00 0.00 58 1015.4
20260508154503 18 346 0.0 3.2 0.00 0.00 0.00 57 1015.6
20260508153004 18 344 0.0 1.6 0.00 0.00 0.00 55 1015.8
20260508152503 19 356 0.0 0.0 0.00 0.00 0.00 56 1015.8
20260508152004 18 0 0.0 0.0 0.00 0.00 0.00 61 1015.9
20260508151004 18 169 0.0 0.0 0.00 0.03 0.00 61 1015.8
20260508150504 18 5 0.0 0.0 0.00 0.03 0.00 62 1015.8
20260508144504 17 347 0.0 0.0 0.00 0.03 0.00 65 1015.5
20260508144003 17 66 0.0 0.0 0.00 0.03 0.00 67 1015.4
20260508143003 16 327 0.0 0.0 0.00 0.03 0.00 68 1015.5
20260508142503 16 10 0.0 0.0 0.00 0.03 0.00 69 1015.5
20260508142004 16 97 0.0 0.0 0.00 0.03 0.00 72 1015.6
20260508141503 15 10 0.0 0.0 0.00 0.03 0.00 74 1015.7
20260508141004 15 16 0.0 0.0 0.00 0.03 0.00 75 1015.8
20260508140504 15 130 0.0 0.0 0.00 0.03 0.00 77 1015.9
20260508140004 15 209 0.0 0.0 0.00 0.03 0.00 81 1016.0
20260508135503 14 195 0.0 0.0 0.00 0.03 0.00 80 1016.0
20260508135004 14 0 0.0 0.0 0.00 0.05 0.00 82 1015.9
20260508134503 13 26 0.0 0.0 0.00 0.05 0.00 84 1016.0
20260508133503 13 9 0.0 0.0 0.00 0.10 0.00 90 1016.0
20260508133004 13 24 0.0 0.0 0.00 0.13 0.00 92 1016.0
20260508132503 13 23 0.0 0.0 0.00 0.15 0.00 94 1016.1
20260508132004 13 35 0.0 0.0 0.00 0.15 0.00 94 1016.1
20260508131504 13 34 0.0 0.0 0.00 0.18 0.00 95 1016.1
20260508131004 12 35 0.0 0.0 0.00 0.20 0.00 96 1016.0
20260508130004 12 24 0.0 0.0 0.00 0.25 0.00 96 1015.8
20260508125503 12 23 0.0 0.0 0.00 0.28 0.00 97 1015.8
20260508125004 12 23 0.0 0.0 0.00 0.30 0.00 98 1015.6
20260508124503 11 24 0.0 0.0 0.00 0.33 0.00 99 1015.6
20260508124004 11 23 0.0 0.0 0.00 0.36 0.00 99 1015.5
20260508123004 11 23 0.0 0.0 0.00 0.41 0.00 100 1015.3
20260508122503 11 23 0.0 0.0 0.00 0.43 0.00 100 1015.3
20260508122004 11 244 0.0 0.0 0.00 0.48 0.00 100 1015.2
20260508121503 11 233 0.0 0.0 0.00 0.51 0.00 100 1015.3
20260508121004 10 280 0.0 0.0 0.00 0.56 0.00 100 1015.2
20260508120504 10 293 0.0 0.0 0.00 0.58 0.00 100 1015.2
20260508120003 10 295 0.0 0.0 0.00 0.61 0.00 100 1015.0
20260508115504 10 295 0.0 0.0 0.00 0.64 0.00 100 1015.0
20260508114503 10 296 0.0 0.0 0.00 0.71 0.00 99 1014.8
20260508114004 10 296 0.0 0.0 0.00 0.76 0.00 99 1014.7
20260508113503 10 296 0.0 0.0 0.00 0.79 0.00 98 1014.7
20260508113004 9 155 0.0 0.0 0.00 0.81 0.00 98 1014.6
20260508112504 9 155 0.0 0.0 0.00 0.86 0.00 98 1014.6
20260508112003 9 156 0.0 0.0 0.00 0.89 0.00 98 1014.4
20260508111504 9 157 0.0 0.0 0.00 0.91 0.00 98 1014.1
20260508111003 9 156 0.0 0.0 0.00 0.91 0.00 98 1014.0
20260508110504 9 156 0.0 0.0 0.00 0.94 0.00 98 1013.9
20260508110004 9 156 0.0 0.0 0.00 0.97 0.00 98 1013.7
20260508105503 9 157 0.0 0.0 0.00 0.97 0.00 98 1013.6
20260508105004 9 156 0.0 0.0 0.00 0.99 0.00 98 1013.6
20260508104504 9 157 0.0 0.0 0.00 1.02 0.00 98 1013.5
20260508103504 9 156 0.0 0.0 0.00 1.07 0.00 97 1013.4
20260508103004 9 157 0.0 0.0 0.00 1.09 0.00 97 1013.4
20260508102503 9 158 0.0 0.0 0.00 1.12 0.00 97 1013.3
20260508102004 9 158 0.0 0.0 0.00 1.12 0.00 97 1013.3
20260508101504 9 158 0.0 0.0 0.00 1.12 0.00 97 1013.2
20260508100504 10 157 0.0 0.0 0.00 1.12 0.00 97 1013.0
20260508100004 10 157 0.0 0.0 0.00 1.12 0.00 97 1012.8
20260508095504 10 157 0.0 0.0 0.00 1.12 0.00 97 1012.8
20260508095004 10 157 0.0 0.0 0.00 1.12 0.00 97 1012.7
20260508094504 10 158 0.0 0.0 0.00 1.12 0.00 97 1012.5
20260508093503 10 158 0.0 0.0 0.00 1.12 0.00 97 1012.5
20260508093004 10 157 0.0 0.0 0.00 1.12 0.00 97 1012.6
20260508092503 10 157 0.0 0.0 0.00 1.12 0.00 97 1012.6
20260508092004 10 157 0.0 0.0 0.00 1.12 0.00 97 1012.5
20260508091504 10 158 0.0 0.0 0.00 1.12 0.00 97 1012.4
20260508090504 10 158 0.0 0.0 0.00 1.12 0.00 96 1012.3
20260508090004 10 158 0.0 0.0 0.00 1.12 0.00 96 1012.3
20260508085504 10 158 0.0 0.0 0.00 1.12 0.00 96 1012.3
20260508085003 10 157 0.0 0.0 0.00 1.12 0.00 97 1012.2
20260508084504 10 158 0.0 0.0 0.00 1.12 0.00 97 1012.1
20260508084003 10 158 0.0 0.0 0.00 1.12 0.00 97 1012.1
20260508083504 10 158 0.0 0.0 0.00 1.12 0.00 96 1012.0
20260508082504 10 146 0.0 0.0 0.00 1.12 0.00 96 1012.1
20260508082003 10 148 0.0 0.0 0.00 1.12 0.00 96 1012.2
20260508081504 10 149 0.0 0.0 0.00 1.12 0.00 96 1012.2
20260508081003 10 145 0.0 0.0 0.00 1.12 0.00 96 1012.0
20260508080503 10 147 0.0 0.0 0.00 1.12 0.00 96 1012.0
20260508075503 10 147 0.0 0.0 0.00 1.12 0.00 96 1012.1
20260508075003 11 149 0.0 0.0 0.00 1.12 0.00 95 1012.1
20260508074504 11 148 0.0 0.0 0.00 1.12 0.00 95 1012.1
20260508074003 11 148 0.0 0.0 0.00 1.12 0.00 95 1012.1
20260508073503 11 150 0.0 0.0 0.00 1.12 0.00 95 1012.0
20260508073004 11 149 0.0 0.0 0.00 1.12 0.00 95 1012.0
20260508072503 11 148 0.0 0.0 0.00 1.12 0.00 95 1012.1
20260508072004 11 148 0.0 0.0 0.00 1.12 0.00 94 1012.1
20260508071503 11 147 0.0 0.0 0.00 1.12 0.00 94 1012.0
20260508071003 11 142 0.0 0.0 0.00 1.12 0.00 94 1011.9
20260508070504 11 144 0.0 0.0 0.00 1.12 0.00 94 1011.9
20260508065503 11 147 0.0 0.0 0.00 1.12 0.00 93 1011.9
20260508065003 11 150 0.0 0.0 0.00 1.12 0.00 93 1011.8
20260508064504 11 150 0.0 0.0 0.00 1.12 0.00 93 1011.7
20260508064003 11 146 0.0 0.0 0.00 1.12 0.00 93 1011.7
20260508063504 11 149 0.0 0.0 0.00 1.12 0.00 92 1011.7
20260508063004 11 147 0.0 0.0 0.00 1.12 0.00 92 1011.7
20260508062504 11 147 0.0 0.0 0.00 1.12 0.00 92 1011.7
20260508062004 11 147 0.0 0.0 0.00 1.12 0.00 92 1011.7
20260508061504 11 150 0.0 0.0 0.00 1.12 0.00 91 1011.7
20260508061004 11 20 0.0 0.0 0.00 1.12 0.00 91 1011.7
20260508060504 12 19 0.0 0.0 0.00 1.12 0.00 91 1011.7
20260508060003 12 20 0.0 0.0 0.00 1.12 0.00 91 1011.9
20260508055504 12 31 0.0 0.0 0.00 1.12 0.00 91 1011.8
20260508055004 12 28 0.0 0.0 0.00 1.12 0.00 90 1011.8
20260508054504 12 29 0.0 0.0 0.00 1.12 0.00 90 1012.1
20260508054004 12 32 0.0 0.0 0.00 1.12 0.00 90 1012.0
20260508053504 12 22 0.0 0.0 0.00 1.12 0.00 89 1012.1
20260508053003 12 14 0.0 0.0 0.00 1.12 0.00 89 1012.0
20260508052504 12 15 0.0 0.0 0.00 1.17 0.00 89 1012.0
20260508052003 12 14 0.0 0.0 0.00 1.24 0.00 89 1011.9
20260508051504 12 13 0.0 0.0 0.00 1.30 0.00 88 1012.0
20260508051004 12 15 0.0 0.0 0.00 1.40 0.00 89 1011.9
20260508050004 13 15 0.0 0.0 0.00 1.55 0.00 87 1011.9
20260508045503 13 17 0.0 0.0 0.00 1.63 0.00 87 1011.9
20260508045003 13 16 0.0 0.0 0.00 1.70 0.00 86 1011.7
20260508044504 13 15 0.0 0.0 0.00 1.75 0.00 85 1011.8
20260508044003 13 13 0.0 0.0 0.00 1.83 0.00 86 1011.8
20260508043503 13 14 0.0 0.0 0.00 1.88 0.00 85 1011.7
20260508043003 13 13 0.0 0.0 0.00 1.96 0.00 84 1011.7
20260508042003 13 15 0.0 0.0 0.00 2.08 0.00 83 1011.6
20260508041004 13 13 0.0 0.0 0.00 2.24 0.00 83 1011.5
20260508040504 13 14 0.0 0.0 0.00 2.31 0.00 82 1011.5
20260508035504 14 13 0.0 0.0 0.00 2.49 2.41 81 1011.4
20260508034504 14 12 0.0 0.0 0.00 2.64 2.41 79 1011.5
20260508034004 15 13 0.0 0.0 0.00 2.64 2.41 78 1011.4
20260508033503 15 13 0.0 0.0 0.00 2.64 2.41 76 1011.5
20260508033003 15 13 0.0 0.0 0.00 2.64 2.41 76 1011.4
20260508031504 16 13 0.0 0.0 0.00 2.67 2.41 70 1011.5
20260508031003 16 12 0.0 0.0 0.00 2.67 2.41 69 1011.4
20260508030504 16 17 0.0 0.0 0.00 2.67 2.41 68 1011.1
20260508030004 16 18 0.0 0.0 0.00 2.67 2.41 68 1011.0
20260508025504 16 17 0.0 0.0 0.00 2.67 2.41 68 1011.1
20260508025004 16 15 0.0 0.0 0.00 2.67 2.41 68 1011.0
20260508024503 17 16 0.0 0.0 0.00 2.69 2.41 67 1011.0
20260508024004 17 8 0.0 0.0 0.00 2.74 2.41 69 1010.9
20260508023503 17 15 0.0 1.6 0.00 2.77 2.41 68 1010.6
20260508023004 17 20 0.0 11.3 0.00 2.77 2.41 64 1010.4
20260508022503 17 23 0.0 1.6 0.00 2.79 2.41 65 1010.2
20260508022004 17 19 0.0 4.8 0.00 2.79 2.41 65 1010.2
20260508021503 17 22 1.6 12.9 0.00 2.79 2.41 66 1010.2
20260508021003 17 21 1.6 4.8 0.00 2.79 2.41 66 1010.2
20260508020503 17 20 0.0 1.6 0.00 2.79 2.41 65 1010.1
20260508020003 17 20 0.0 9.7 0.00 2.82 2.41 64 1010.0
20260508015504 17 20 0.0 9.7 0.00 2.87 2.41 64 1009.9
20260508015003 18 21 1.6 9.7 0.00 2.90 2.41 65 1009.9
20260508014503 18 19 0.0 8.0 0.00 2.92 2.41 64 1009.9
20260508014003 18 18 1.6 11.3 0.00 2.92 2.41 64 1009.7
20260508013504 18 21 0.0 3.2 0.00 2.95 2.41 64 1009.5
20260508013004 18 20 1.6 9.7 0.00 2.97 2.41 64 1009.4